IRIDIUM 55 [B]

Last updated on Wed Mar 13 2019 03:12:48 GMT+0000 (Coordinated Universal Time)

1 25272U 98019A 19071.38233884 .00000127 00000-0 35038-4 0 9995 2 25272 86.4250 22.3310 0002532 89.2787 270.8702 14.38610378 97068
UTC large
Height (km)
Speed (km/s)
/
Latitude / Longitude
Inclination (degrees)
Orbital Period (minutes)
Azimuth
Elevation
Range (km)
Doppler Factor

Next 0 passes for location: London (51.5072 / 0.1276)

Sorry there are no passes over London.